Weather Roundup
Issued by NWS Chicago, IL

Home | Current Version | Previous Version | Graphics & Text | Print | Product List | Glossary On
Versions: 1 2 3 4 5 6 7 8 9 10 11 12 13 14 15 16 17 18 19 20 21 22 23 24 25 26 27 28 29 30 31 32 33 34 35 36 37 38 39 40 41 42 43 44 45 46 47 48 49 50
059
NZUS59 KLOT 300413
HRRLOT

CHICAGO AREA WEATHER ROUNDUP
NATIONAL WEATHER SERVICE CHICAGO/ROMEOVILLE IL
1100 PM CDT THU SEP 29 2016

NOTE: "FAIR" INDICATES FEW OR NO CLOUDS BELOW 12,000 FEET WITH NO
SIGNIFICANT WEATHER AND/OR OBSTRUCTIONS TO VISIBILITY.

* THESE STATIONS ARE NOT UNDER NWS QUALITY CONTROL. THEY ALSO MAY NOT
  REPORT WEATHER SUCH AS PRECIPITATION OR FOG.

ILZ005-006-012>014-019>023-300500-
NORTHEAST ILLINOIS

CITY           SKY/WX    TMP DP  RH WIND       PRES   REMARKS
OHARE          LGT RAIN  61  58  90 NE13      30.21F
MIDWAY         LGT RAIN  62  58  86 N12       30.20F FOG
AURORA         MOCLDY    61  58  90 N7        30.22S
LANSING*       RAIN      60  60 100 NE8       30.19F
JOLIET*        LGT RAIN  62  61  96 NE8       30.20F
WAUKEGAN       LGT RAIN  61  57  87 NE8       30.23F
DUPAGE AIRPORT LGT RAIN  61  57  87 NE10      30.21F
WHEELING       LGT RAIN  61  58  90 NE7       30.23F
KANKAKEE*      LGT RAIN  60  58  92 N7        30.18F
MORRIS*        CLOUDY    60  59  94 CALM      30.19F
LEWIS AIRPORT* LGT RAIN  60  60 100 NE8       30.21F
NORTHERLY ISL    N/A     61  57  87 NE12        N/A
$$

WIZ051-052-058>065-066-070>072-300500-
SOUTHEAST WISCONSIN

CITY           SKY/WX    TMP DP  RH WIND       PRES   REMARKS
MILWAUKEE      CLOUDY    63  57  81 NE9       30.27S
KENOSHA*       CLOUDY    62  57  83 NE12      30.25F
RACINE*        CLOUDY    62  56  80 NE12      30.27S
BURLINGTON     CLOUDY    60  56  85 NE5       30.25F
WAUKESHA       CLOUDY    59  52  77 NE8       30.28F
WEST BEND      MOCLDY    66  61  82 NE10G17   30.29F
$$

INZ001>003-010>013-019-020-300500-
NORTHWEST INDIANA

CITY           SKY/WX    TMP DP  RH WIND       PRES   REMARKS
GARY*          CLOUDY    62  61  95 NE10G20   30.19F
MICHIGAN CITY* NOT AVBL
RENSSELAER*    NOT AVBL
VALPARAISO     LGT RAIN  59  56  89 N10       30.18F
$$

LMZ740>746-300500-
SOUTHERN LAKE MICHIGAN

STATION/POSITION TIME  SKY/WX   TEMP WIND        PRES    VSBY
                                AIR  DIR/SP/G
                 (UTC)          (F)  (DEG/KT/KT) (MB)    (MI)
HARRISON CRIB    0340            63   30/ 20/ 22   N/A
BURNHAM HARBOR   0400            61   30/ 12/ 16   N/A
CALUMET HARBOR   0348            61   20/ 13/ 16 1021.9F
BURNS HARBOR     0340            62   50/ 19/ 23 1022.4F
MICHIGAN CITY    0340            61   10/ 23/ 25   N/A
$$

ABBREVIATIONS USED IN REMARKS
   TC - TEMPERATURE IN CELSIUS
  WCI - WIND CHILL INDEX
   HX - HEAT INDEX
  VSB - VISIBILITY
$$




USA.gov is the U.S. government's official web portal to all federal, state and local government web resources and services.